Time,TemperatureF,DewpointF,PressureIn,WindDirection,WindDirectionDegrees,WindSpeedMPH,WindSpeedGustMPH,Humidity,HourlyPrecipIn,Conditions,Clouds,dailyrainin,SolarRadiationWatts/m^2,SoftwareType,DateUTC
2013-01-14 00:03:00,5.4,-1.1,30.01,East,80,2.0,7.0,74,0.00,,OVC200,0.00,0.00,VWS V14.01,2013-01-14 06:03:00,
2013-01-14 00:08:00,5.4,-1.1,30.01,ENE,64,2.0,5.0,74,0.00,,OVC200,0.00,0.00,VWS V14.01,2013-01-14 06:08:00,
2013-01-14 00:13:00,5.4,-1.1,30.01,ENE,74,2.0,5.0,74,0.00,,OVC200,0.00,0.00,VWS V14.01,2013-01-14 06:13:00,
2013-01-14 00:18:00,5.4,-1.1,30.01,East,79,3.0,5.0,74,0.00,,OVC200,0.00,0.00,VWS V14.01,2013-01-14 06:18:00,
2013-01-14 00:23:00,5.6,-0.6,30.01,SE,132,3.0,6.0,75,0.00,,OVC200,0.00,0.00,VWS V14.01,2013-01-14 06:23:00,
2013-01-14 00:28:00,5.8,-0.4,30.01,ENE,76,4.0,6.0,75,0.00,,OVC200,0.00,0.00,VWS V14.01,2013-01-14 06:28:00,
2013-01-14 00:33:00,5.8,-0.4,30.01,NE,51,3.0,6.0,75,0.00,,OVC200,0.00,0.00,VWS V14.01,2013-01-14 06:33:00,
2013-01-14 00:38:00,6.0,-0.2,30.01,ESE,121,4.0,6.0,75,0.00,,OVC200,0.00,0.00,VWS V14.01,2013-01-14 06:38:00,
2013-01-14 00:43:00,6.0,-0.2,30.01,ESE,118,1.0,6.0,75,0.00,,OVC200,0.00,0.00,VWS V14.01,2013-01-14 06:43:00,
2013-01-14 00:48:00,6.1,-0.1,30.01,ESE,120,1.0,6.0,75,0.00,,OVC200,0.00,0.00,VWS V14.01,2013-01-14 06:48:00,
2013-01-14 00:53:00,6.0,-0.2,30.01,ESE,119,3.0,6.0,75,0.00,,OVC200,0.00,0.00,VWS V14.01,2013-01-14 06:53:00,
2013-01-14 00:58:00,6.0,-0.2,30.01,ESE,119,1.0,6.0,75,0.00,,OVC200,0.00,0.00,VWS V14.01,2013-01-14 06:58:00,
2013-01-14 01:03:00,5.8,-0.4,30.01,ESE,107,3.0,6.0,75,0.00,,OVC200,0.00,0.00,VWS V14.01,2013-01-14 07:03:00,
2013-01-14 01:08:00,5.6,-0.6,30.01,ESE,111,2.0,4.0,75,0.00,,OVC200,0.00,0.00,VWS V14.01,2013-01-14 07:08:00,
2013-01-14 01:13:00,5.6,-0.6,30.01,East,79,1.0,4.0,75,0.00,,OVC200,0.00,0.00,VWS V14.01,2013-01-14 07:13:00,
2013-01-14 01:18:00,5.4,-0.8,30.02,ENE,76,0.0,5.0,75,0.00,,OVC200,0.00,0.00,VWS V14.01,2013-01-14 07:18:00,
2013-01-14 01:23:00,5.4,-0.8,30.02,ENE,76,1.0,5.0,75,0.00,,OVC200,0.00,0.00,VWS V14.01,2013-01-14 07:23:00,
2013-01-14 01:27:00,5.4,-0.5,30.02,East,84,0.0,6.0,76,0.00,,OVC200,0.00,0.00,VWS V14.01,2013-01-14 07:27:00,
2013-01-14 01:32:00,5.4,-0.5,30.03,East,82,3.0,6.0,76,0.00,,OVC200,0.00,0.00,VWS V14.01,2013-01-14 07:32:00,
2013-01-14 01:37:00,5.4,-0.5,30.03,East,89,2.0,5.0,76,0.00,,OVC200,0.00,0.00,VWS V14.01,2013-01-14 07:37:00,
2013-01-14 01:42:00,5.4,-0.5,30.03,ENE,65,1.0,5.0,76,0.00,,OVC200,0.00,0.00,VWS V14.01,2013-01-14 07:42:00,
2013-01-14 01:47:00,5.4,-0.5,30.03,NE,49,2.0,5.0,76,0.00,,OVC200,0.00,0.00,VWS V14.01,2013-01-14 07:47:00,
2013-01-14 01:52:00,5.4,-0.5,30.03,East,83,0.0,5.0,76,0.00,,OVC200,0.00,0.00,VWS V14.01,2013-01-14 07:52:00,
2013-01-14 01:57:00,5.4,-0.5,30.03,East,90,1.0,5.0,76,0.00,,OVC200,0.00,0.00,VWS V14.01,2013-01-14 07:57:00,
2013-01-14 02:02:00,5.4,-0.5,30.03,ENE,74,3.0,5.0,76,0.00,,OVC200,0.00,0.00,VWS V14.01,2013-01-14 08:02:00,
2013-01-14 02:07:00,5.4,-0.5,30.03,NE,49,2.0,5.0,76,0.00,,OVC200,0.00,0.00,VWS V14.01,2013-01-14 08:07:00,
2013-01-14 02:12:00,5.6,-0.3,30.03,NE,51,2.0,5.0,76,0.00,,OVC200,0.00,0.00,VWS V14.01,2013-01-14 08:12:00,
2013-01-14 02:17:00,5.6,0.0,30.03,NE,53,0.0,6.0,77,0.00,,OVC200,0.00,0.00,VWS V14.01,2013-01-14 08:17:00,
2013-01-14 02:22:00,5.6,-0.3,30.03,NE,53,1.0,6.0,76,0.00,,OVC200,0.00,0.00,VWS V14.01,2013-01-14 08:22:00,
2013-01-14 02:27:00,5.6,-0.3,30.03,NE,53,0.0,6.0,76,0.00,,OVC200,0.00,0.00,VWS V14.01,2013-01-14 08:27:00,
2013-01-14 02:32:00,5.4,-0.5,30.03,NE,53,0.0,6.0,76,0.00,,OVC200,0.00,0.00,VWS V14.01,2013-01-14 08:32:00,
2013-01-14 02:37:00,5.4,-0.2,30.03,NE,53,0.0,3.0,77,0.00,,OVC200,0.00,0.00,VWS V14.01,2013-01-14 08:37:00,
2013-01-14 02:42:00,5.4,-0.2,30.03,NE,53,1.0,4.0,77,0.00,,OVC200,0.00,0.00,VWS V14.01,2013-01-14 08:42:00,
2013-01-14 02:47:00,5.2,-0.4,30.04,NE,53,1.0,4.0,77,0.00,,OVC200,0.00,0.00,VWS V14.01,2013-01-14 08:47:00,
2013-01-14 02:52:00,5.2,-0.4,30.04,NE,53,0.0,4.0,77,0.00,,OVC200,0.00,0.00,VWS V14.01,2013-01-14 08:52:00,
2013-01-14 02:57:00,5.2,-0.4,30.04,NE,53,2.0,4.0,77,0.00,,OVC200,0.00,0.00,VWS V14.01,2013-01-14 08:57:00,
2013-01-14 03:02:00,5.4,-0.2,30.04,NE,51,1.0,5.0,77,0.00,,OVC200,0.00,0.00,VWS V14.01,2013-01-14 09:02:00,
2013-01-14 03:07:00,5.4,-0.2,30.04,NE,53,0.0,5.0,77,0.00,,OVC200,0.00,0.00,VWS V14.01,2013-01-14 09:07:00,
2013-01-14 03:12:00,5.4,-0.2,30.04,NE,53,1.0,5.0,77,0.00,,OVC200,0.00,0.00,VWS V14.01,2013-01-14 09:12:00,
2013-01-14 03:17:00,5.4,-0.2,30.04,ENE,58,4.0,5.0,77,0.00,,OVC200,0.00,0.00,VWS V14.01,2013-01-14 09:17:00,
2013-01-14 03:22:00,5.4,-0.2,30.04,ENE,59,0.0,5.0,77,0.00,,OVC200,0.00,0.00,VWS V14.01,2013-01-14 09:22:00,
2013-01-14 03:27:00,5.4,-0.2,30.04,ENE,59,3.0,5.0,77,0.00,,OVC200,0.00,0.00,VWS V14.01,2013-01-14 09:27:00,
2013-01-14 03:32:00,5.4,-0.2,30.04,ENE,61,3.0,5.0,77,0.00,,OVC200,0.00,0.00,VWS V14.01,2013-01-14 09:32:00,
2013-01-14 03:37:00,5.4,-1.1,30.04,ENE,67,4.0,4.0,74,0.00,,OVC200,0.00,0.00,VWS V14.01,2013-01-14 09:37:00,
2013-01-14 03:42:00,5.2,-0.4,30.04,ESE,102,4.0,5.0,77,0.00,,OVC200,0.00,0.00,VWS V14.01,2013-01-14 09:42:00,
2013-01-14 03:47:00,5.2,-0.4,30.04,ESE,120,3.0,6.0,77,0.00,,OVC200,0.00,0.00,VWS V14.01,2013-01-14 09:47:00,
2013-01-14 03:52:00,5.2,-0.4,30.04,SE,125,2.0,6.0,77,0.00,,OVC200,0.00,0.00,VWS V14.01,2013-01-14 09:52:00,
2013-01-14 03:57:00,5.2,-0.4,30.04,ESE,103,1.0,6.0,77,0.00,,OVC200,0.00,0.00,VWS V14.01,2013-01-14 09:57:00,
2013-01-14 04:02:00,5.2,-0.4,30.04,East,81,1.0,6.0,77,0.00,,OVC200,0.00,0.00,VWS V14.01,2013-01-14 10:02:00,
2013-01-14 04:07:00,5.0,-0.6,30.04,ENE,76,0.0,4.0,77,0.00,,OVC200,0.00,0.00,VWS V14.01,2013-01-14 10:07:00,
2013-01-14 04:12:00,5.0,-0.6,30.04,NE,47,3.0,6.0,77,0.00,,OVC200,0.00,0.00,VWS V14.01,2013-01-14 10:12:00,
2013-01-14 04:17:00,5.0,-0.6,30.04,NE,49,2.0,6.0,77,0.00,,OVC200,0.00,0.00,VWS V14.01,2013-01-14 10:17:00,
2013-01-14 04:22:00,5.0,-0.6,30.04,East,88,1.0,6.0,77,0.00,,OVC200,0.00,0.00,VWS V14.01,2013-01-14 10:22:00,
2013-01-14 04:27:00,4.8,-0.8,30.04,ENE,72,2.0,8.0,77,0.00,,OVC200,0.00,0.00,VWS V14.01,2013-01-14 10:27:00,
2013-01-14 04:32:00,4.8,-0.8,30.04,ENE,64,1.0,8.0,77,0.00,,OVC200,0.00,0.00,VWS V14.01,2013-01-14 10:32:00,
2013-01-14 04:37:00,4.8,-0.8,30.05,ESE,104,2.0,10.0,77,0.00,,OVC200,0.00,0.00,VWS V14.01,2013-01-14 10:37:00,
2013-01-14 04:42:00,4.8,-0.8,30.05,ESE,109,3.0,10.0,77,0.00,,OVC200,0.00,0.00,VWS V14.01,2013-01-14 10:42:00,
2013-01-14 04:47:00,4.8,-0.8,30.05,NE,56,2.0,10.0,77,0.00,,OVC200,0.00,0.00,VWS V14.01,2013-01-14 10:47:00,
2013-01-14 04:52:00,4.8,-0.8,30.06,East,100,3.0,10.0,77,0.00,,OVC200,0.00,0.00,VWS V14.01,2013-01-14 10:52:00,
2013-01-14 04:57:00,4.8,-0.8,30.06,NE,34,4.0,10.0,77,0.00,,OVC200,0.00,0.00,VWS V14.01,2013-01-14 10:57:00,
2013-01-14 05:02:00,4.8,-0.8,30.06,ESE,112,2.0,10.0,77,0.00,,OVC200,0.00,0.00,VWS V14.01,2013-01-14 11:02:00,
2013-01-14 05:07:00,4.7,-0.9,30.06,ESE,123,2.0,6.0,77,0.00,,OVC200,0.00,0.00,VWS V14.01,2013-01-14 11:07:00,
2013-01-14 05:12:00,4.7,-0.9,30.06,SE,134,4.0,6.0,77,0.00,,OVC200,0.00,0.00,VWS V14.01,2013-01-14 11:12:00,
2013-01-14 05:17:00,4.7,-0.9,30.06,NE,55,2.0,6.0,77,0.00,,OVC200,0.00,0.00,VWS V14.01,2013-01-14 11:17:00,
2013-01-14 05:22:00,4.7,-0.9,30.06,East,81,2.0,6.0,77,0.00,,OVC200,0.00,0.00,VWS V14.01,2013-01-14 11:22:00,
2013-01-14 05:27:00,4.7,-0.9,30.06,ENE,67,2.0,6.0,77,0.00,,OVC200,0.00,0.00,VWS V14.01,2013-01-14 11:27:00,
2013-01-14 05:30:00,4.7,-0.9,30.06,East,101,2.0,6.0,77,0.00,,OVC200,0.00,0.00,VWS V14.01,2013-01-14 11:30:00,
2013-01-14 05:35:00,4.8,-0.5,30.07,SE,131,4.0,6.0,78,0.00,,OVC200,0.00,0.00,VWS V14.01,2013-01-14 11:35:00,
2013-01-14 05:40:00,5.0,-0.3,30.07,ESE,116,4.0,9.0,78,0.00,,OVC200,0.00,0.00,VWS V14.01,2013-01-14 11:40:00,
2013-01-14 05:45:00,5.2,-0.2,30.07,ESE,113,2.0,9.0,78,0.00,,OVC200,0.00,0.00,VWS V14.01,2013-01-14 11:45:00,
2013-01-14 05:50:00,5.4,0.0,30.08,ENE,66,3.0,9.0,78,0.00,,OVC200,0.00,0.00,VWS V14.01,2013-01-14 11:50:00,
2013-01-14 05:55:00,5.6,0.2,30.08,ESE,115,3.0,9.0,78,0.00,,OVC200,0.00,0.00,VWS V14.01,2013-01-14 11:55:00,
2013-01-14 06:00:00,5.8,0.4,30.08,ESE,107,4.0,9.0,78,0.00,,OVC200,0.00,0.00,VWS V14.01,2013-01-14 12:00:00,
2013-01-14 06:05:00,6.0,0.3,30.08,ESE,107,1.0,4.0,77,0.00,,OVC200,0.00,0.00,VWS V14.01,2013-01-14 12:05:00,
2013-01-14 06:10:00,6.0,0.3,30.08,ESE,114,2.0,7.0,77,0.00,,OVC200,0.00,0.00,VWS V14.01,2013-01-14 12:10:00,
2013-01-14 06:15:00,6.0,0.3,30.08,ESE,123,5.0,9.0,77,0.00,,OVC200,0.00,0.00,VWS V14.01,2013-01-14 12:15:00,
2013-01-14 06:20:00,6.1,0.4,30.09,ESE,122,5.0,9.0,77,0.00,,OVC200,0.00,0.00,VWS V14.01,2013-01-14 12:20:00,
2013-01-14 06:25:00,6.1,0.4,30.09,SE,131,5.0,9.0,77,0.00,,OVC200,0.00,0.00,VWS V14.01,2013-01-14 12:25:00,
2013-01-14 06:30:00,6.3,0.6,30.09,East,92,3.0,9.0,77,0.00,,OVC200,0.00,0.00,VWS V14.01,2013-01-14 12:30:00,
2013-01-14 06:35:00,6.3,0.6,30.09,ESE,117,3.0,7.0,77,0.00,,OVC200,0.00,0.00,VWS V14.01,2013-01-14 12:35:00,
2013-01-14 06:40:00,6.5,0.8,30.09,ESE,117,4.0,9.0,77,0.00,,OVC200,0.00,0.00,VWS V14.01,2013-01-14 12:40:00,
2013-01-14 06:45:00,6.5,0.8,30.09,ESE,113,6.0,9.0,77,0.00,,OVC200,0.00,0.00,VWS V14.01,2013-01-14 12:45:00,
2013-01-14 06:50:00,6.5,0.8,30.09,ESE,109,3.0,9.0,77,0.00,,OVC200,0.00,0.00,VWS V14.01,2013-01-14 12:50:00,
2013-01-14 06:55:00,6.7,1.0,30.09,SE,126,3.0,9.0,77,0.00,,OVC200,0.00,0.00,VWS V14.01,2013-01-14 12:55:00,
2013-01-14 07:00:00,6.9,1.2,30.09,ESE,106,3.0,9.0,77,0.00,,OVC200,0.00,0.00,VWS V14.01,2013-01-14 13:00:00,
2013-01-14 07:05:00,6.9,1.2,30.11,SE,134,4.0,7.0,77,0.00,,OVC200,0.00,0.00,VWS V14.01,2013-01-14 13:05:00,
2013-01-14 07:10:00,7.0,1.3,30.11,SE,132,2.0,7.0,77,0.00,,OVC200,0.00,0.00,VWS V14.01,2013-01-14 13:10:00,
2013-01-14 07:15:00,7.0,1.3,30.11,SE,138,2.0,7.0,77,0.00,,OVC200,0.00,0.00,VWS V14.01,2013-01-14 13:15:00,
2013-01-14 07:20:00,7.2,1.2,30.11,SE,130,2.0,7.0,76,0.00,,OVC200,0.00,0.00,VWS V14.01,2013-01-14 13:20:00,
2013-01-14 07:25:00,7.0,1.0,30.11,SE,138,2.0,9.0,76,0.00,,OVC200,0.00,0.00,VWS V14.01,2013-01-14 13:25:00,
2013-01-14 07:30:00,7.2,1.2,30.11,South,169,3.0,10.0,76,0.00,,OVC200,0.00,0.00,VWS V14.01,2013-01-14 13:30:00,
2013-01-14 07:35:00,7.2,1.2,30.11,ESE,116,3.0,7.0,76,0.00,,OVC200,0.00,0.00,VWS V14.01,2013-01-14 13:35:00,
2013-01-14 07:40:00,7.2,1.0,30.11,South,177,3.0,8.0,75,0.00,,OVC200,0.00,0.00,VWS V14.01,2013-01-14 13:40:00,
2013-01-14 07:45:00,7.2,1.0,30.11,SE,128,5.0,9.0,75,0.00,,OVC200,0.00,0.00,VWS V14.01,2013-01-14 13:45:00,
2013-01-14 07:50:00,7.0,0.5,30.12,SE,130,6.0,9.0,74,0.00,,OVC200,0.00,0.00,VWS V14.01,2013-01-14 13:50:00,
2013-01-14 07:54:00,6.9,0.1,30.12,SE,134,5.0,9.0,73,0.00,,OVC200,0.00,5.00,VWS V14.01,2013-01-14 13:54:00,
2013-01-14 07:59:00,6.9,0.1,30.12,SSE,148,5.0,9.0,73,0.00,,OVC200,0.00,7.00,VWS V14.01,2013-01-14 13:59:00,
2013-01-14 08:04:00,7.0,0.2,30.12,SE,130,4.0,4.0,73,0.00,,OVC200,0.00,11.00,VWS V14.01,2013-01-14 14:04:00,
2013-01-14 08:09:00,7.0,0.2,30.12,ESE,122,5.0,12.0,73,0.00,,OVC200,0.00,16.00,VWS V14.01,2013-01-14 14:09:00,
2013-01-14 08:14:00,7.0,0.2,30.12,SE,138,5.0,12.0,73,0.00,,OVC200,0.00,18.00,VWS V14.01,2013-01-14 14:14:00,
2013-01-14 08:19:00,6.9,0.1,30.14,SE,128,5.0,12.0,73,0.00,,OVC200,0.00,21.00,VWS V14.01,2013-01-14 14:19:00,
2013-01-14 08:24:00,6.9,-0.2,30.14,ESE,110,3.0,12.0,72,0.00,,OVC200,0.00,26.00,VWS V14.01,2013-01-14 14:24:00,
2013-01-14 08:29:00,6.9,-0.2,30.14,SE,131,3.0,12.0,72,0.00,,OVC200,0.00,28.00,VWS V14.01,2013-01-14 14:29:00,
2013-01-14 08:34:00,7.0,-0.1,30.15,SSE,154,5.0,8.0,72,0.00,,OVC200,0.00,26.00,VWS V14.01,2013-01-14 14:34:00,
2013-01-14 08:39:00,7.0,-0.1,30.15,ESE,111,7.0,10.0,72,0.00,,OVC200,0.00,33.00,VWS V14.01,2013-01-14 14:39:00,
2013-01-14 08:44:00,6.9,-0.2,30.15,SE,144,4.0,10.0,72,0.00,,OVC200,0.00,37.00,VWS V14.01,2013-01-14 14:44:00,
2013-01-14 08:49:00,6.7,-0.4,30.15,SE,134,6.0,12.0,72,0.00,,OVC200,0.00,44.00,VWS V14.01,2013-01-14 14:49:00,
2013-01-14 08:54:00,6.9,0.1,30.15,ESE,111,3.0,12.0,73,0.00,,OVC200,0.00,54.00,VWS V14.01,2013-01-14 14:54:00,
2013-01-14 08:59:00,6.7,-0.4,30.15,ESE,106,5.0,12.0,72,0.00,,OVC200,0.00,60.00,VWS V14.01,2013-01-14 14:59:00,
2013-01-14 09:04:00,6.7,-0.4,30.15,SSE,157,3.0,5.0,72,0.00,,OVC200,0.00,62.00,VWS V14.01,2013-01-14 15:04:00,
2013-01-14 09:09:00,6.7,-0.7,30.15,SSE,160,9.0,9.0,71,0.00,,OVC200,0.00,58.00,VWS V14.01,2013-01-14 15:09:00,
2013-01-14 09:14:00,6.5,-0.6,30.15,ESE,120,4.0,10.0,72,0.00,,OVC200,0.00,37.00,VWS V14.01,2013-01-14 15:14:00,
2013-01-14 09:19:00,6.3,-1.1,30.16,ESE,118,2.0,10.0,71,0.00,,OVC200,0.00,56.00,VWS V14.01,2013-01-14 15:19:00,
2013-01-14 09:24:00,6.3,-1.4,30.16,SE,146,7.0,10.0,70,0.00,,OVC200,0.00,42.00,VWS V14.01,2013-01-14 15:24:00,
2013-01-14 09:29:00,6.1,-1.6,30.16,ESE,111,5.0,11.0,70,0.00,,OVC200,0.00,35.00,VWS V14.01,2013-01-14 15:29:00,
2013-01-14 09:34:00,6.1,-1.6,30.16,SE,136,4.0,11.0,70,0.00,,OVC200,0.00,35.00,VWS V14.01,2013-01-14 15:34:00,
2013-01-14 09:39:00,6.3,-1.4,30.16,SSE,147,3.0,11.0,70,0.00,,OVC200,0.00,37.00,VWS V14.01,2013-01-14 15:39:00,
2013-01-14 09:44:00,6.5,-1.2,30.16,SE,139,4.0,12.0,70,0.00,,OVC200,0.00,39.00,VWS V14.01,2013-01-14 15:44:00,
2013-01-14 09:49:00,6.5,-1.5,30.16,SSE,151,6.0,13.0,69,0.00,,OVC200,0.00,37.00,VWS V14.01,2013-01-14 15:49:00,
2013-01-14 09:54:00,6.7,-1.3,30.16,SSE,156,9.0,13.0,69,0.00,,OVC200,0.00,40.00,VWS V14.01,2013-01-14 15:54:00,
2013-01-14 09:59:00,6.7,-1.3,30.16,SE,144,5.0,13.0,69,0.00,,OVC200,0.00,42.00,VWS V14.01,2013-01-14 15:59:00,
2013-01-14 10:04:00,6.7,-1.3,30.17,SE,130,9.0,13.0,69,0.00,,OVC200,0.00,42.00,VWS V14.01,2013-01-14 16:04:00,
2013-01-14 10:09:00,6.9,-1.1,30.17,SE,127,4.0,13.0,69,0.00,,OVC200,0.00,40.00,VWS V14.01,2013-01-14 16:09:00,
2013-01-14 10:14:00,7.0,-1.0,30.17,SE,125,7.0,13.0,69,0.00,,OVC200,0.00,40.00,VWS V14.01,2013-01-14 16:14:00,
2013-01-14 10:19:00,7.0,-1.3,30.17,SE,144,9.0,13.0,68,0.00,,OVC200,0.00,46.00,VWS V14.01,2013-01-14 16:19:00,
2013-01-14 10:24:00,7.2,-0.8,30.17,SSE,161,4.0,13.0,69,0.00,,OVC200,0.00,42.00,VWS V14.01,2013-01-14 16:24:00,
2013-01-14 10:29:00,7.4,-0.9,30.17,ESE,121,7.0,13.0,68,0.00,,OVC200,0.00,42.00,VWS V14.01,2013-01-14 16:29:00,
2013-01-14 10:34:00,7.4,-0.9,30.17,SE,130,6.0,9.0,68,0.00,,OVC200,0.00,42.00,VWS V14.01,2013-01-14 16:34:00,
2013-01-14 10:39:00,7.2,-1.1,30.17,ESE,109,5.0,14.0,68,0.00,,OVC200,0.00,42.00,VWS V14.01,2013-01-14 16:39:00,
2013-01-14 10:44:00,7.6,-0.7,30.17,SSE,152,5.0,14.0,68,0.00,,OVC200,0.00,46.00,VWS V14.01,2013-01-14 16:44:00,
2013-01-14 10:49:00,7.7,-0.6,30.17,SE,126,7.0,14.0,68,0.00,,OVC200,0.00,46.00,VWS V14.01,2013-01-14 16:49:00,
2013-01-14 10:54:00,7.7,-0.6,30.17,SE,131,3.0,14.0,68,0.00,,OVC200,0.00,46.00,VWS V14.01,2013-01-14 16:54:00,
2013-01-14 10:59:00,8.1,-0.3,30.17,SSE,156,7.0,14.0,68,0.00,,OVC200,0.00,47.00,VWS V14.01,2013-01-14 16:59:00,
2013-01-14 11:04:00,8.1,-0.3,30.17,ESE,123,5.0,9.0,68,0.00,,OVC200,0.00,53.00,VWS V14.01,2013-01-14 17:04:00,
2013-01-14 11:09:00,8.3,-0.4,30.17,SSE,149,11.0,13.0,67,0.00,,OVC200,0.00,72.00,VWS V14.01,2013-01-14 17:09:00,
2013-01-14 11:14:00,8.4,0.0,30.17,SE,145,5.0,13.0,68,0.00,,OVC200,0.00,137.00,VWS V14.01,2013-01-14 17:14:00,
2013-01-14 11:19:00,8.6,-0.4,30.16,SE,128,4.0,13.0,66,0.00,,OVC200,0.00,113.00,VWS V14.01,2013-01-14 17:19:00,
2013-01-14 11:24:00,8.6,-0.7,30.16,ESE,107,7.0,16.0,65,0.00,,OVC200,0.00,51.00,VWS V14.01,2013-01-14 17:24:00,
2013-01-14 11:29:00,8.6,-0.7,30.16,SE,125,4.0,16.0,65,0.00,,OVC200,0.00,60.00,VWS V14.01,2013-01-14 17:29:00,
2013-01-14 11:34:00,8.8,-0.2,30.15,SSE,156,5.0,11.0,66,0.00,,OVC200,0.00,56.00,VWS V14.01,2013-01-14 17:34:00,
2013-01-14 11:39:00,8.8,-0.6,30.15,SSE,149,4.0,13.0,65,0.00,,OVC200,0.00,51.00,VWS V14.01,2013-01-14 17:39:00,
2013-01-14 11:44:00,9.0,-0.4,30.15,South,175,4.0,13.0,65,0.00,,OVC200,0.00,51.00,VWS V14.01,2013-01-14 17:44:00,
2013-01-14 11:49:00,9.2,0.2,30.15,South,171,5.0,13.0,66,0.00,,OVC200,0.00,54.00,VWS V14.01,2013-01-14 17:49:00,
2013-01-14 11:54:00,9.5,0.1,30.15,SSE,147,5.0,13.0,65,0.00,,OVC200,0.00,399.00,VWS V14.01,2013-01-14 17:54:00,
2013-01-14 11:59:00,9.5,-0.2,30.15,SE,144,7.0,13.0,64,0.00,,OVC200,0.00,401.00,VWS V14.01,2013-01-14 17:59:00,
2013-01-14 12:04:00,9.5,-0.2,30.15,SSE,159,7.0,7.0,64,0.00,,OVC200,0.00,410.00,VWS V14.01,2013-01-14 18:04:00,
2013-01-14 12:09:00,10.0,0.3,30.15,SE,138,9.0,15.0,64,0.00,,OVC200,0.00,410.00,VWS V14.01,2013-01-14 18:09:00,
2013-01-14 12:14:00,10.0,0.3,30.15,SE,140,7.0,15.0,64,0.00,,OVC200,0.00,401.00,VWS V14.01,2013-01-14 18:14:00,
2013-01-14 12:19:00,9.9,0.2,30.15,SSW,211,6.0,15.0,64,0.00,,OVC200,0.00,410.00,VWS V14.01,2013-01-14 18:19:00,
2013-01-14 12:24:00,9.9,-0.2,30.15,ESE,120,7.0,15.0,63,0.00,,OVC200,0.00,418.00,VWS V14.01,2013-01-14 18:24:00,
2013-01-14 12:29:00,9.9,0.2,30.15,SE,134,4.0,15.0,64,0.00,,OVC200,0.00,350.00,VWS V14.01,2013-01-14 18:29:00,
2013-01-14 12:34:00,10.2,0.1,30.14,SE,128,6.0,12.0,63,0.00,,OVC200,0.00,406.00,VWS V14.01,2013-01-14 18:34:00,
2013-01-14 12:39:00,10.2,0.1,30.14,ESE,120,5.0,14.0,63,0.00,,OVC200,0.00,417.00,VWS V14.01,2013-01-14 18:39:00,
2013-01-14 12:44:00,10.7,0.9,30.14,ESE,123,4.0,14.0,64,0.00,,OVC200,0.00,417.00,VWS V14.01,2013-01-14 18:44:00,
2013-01-14 12:49:00,10.9,0.8,30.14,ESE,111,4.0,14.0,63,0.00,,OVC200,0.00,473.00,VWS V14.01,2013-01-14 18:49:00,
2013-01-14 12:54:00,11.1,1.3,30.14,ESE,117,9.0,14.0,64,0.00,,OVC200,0.00,441.00,VWS V14.01,2013-01-14 18:54:00,
2013-01-14 12:59:00,11.1,1.3,30.14,SE,126,7.0,14.0,64,0.00,,OVC200,0.00,466.00,VWS V14.01,2013-01-14 18:59:00,
2013-01-14 13:04:00,10.9,1.1,30.13,South,170,6.0,10.0,64,0.00,,OVC200,0.00,271.00,VWS V14.01,2013-01-14 19:04:00,
2013-01-14 13:09:00,10.4,0.6,30.13,South,169,3.0,12.0,64,0.00,,OVC200,0.00,83.00,VWS V14.01,2013-01-14 19:09:00,
2013-01-14 13:14:00,10.0,0.3,30.13,SE,138,4.0,12.0,64,0.00,,OVC200,0.00,79.00,VWS V14.01,2013-01-14 19:14:00,
2013-01-14 13:19:00,10.2,0.5,30.13,SSE,165,10.0,12.0,64,0.00,,OVC200,0.00,121.00,VWS V14.01,2013-01-14 19:19:00,
2013-01-14 13:24:00,10.2,0.5,30.13,SE,139,4.0,12.0,64,0.00,,OVC200,0.00,116.00,VWS V14.01,2013-01-14 19:24:00,
2013-01-14 13:29:00,10.7,0.9,30.13,SE,143,3.0,12.0,64,0.00,,OVC200,0.00,432.00,VWS V14.01,2013-01-14 19:29:00,
2013-01-14 13:34:00,11.2,1.4,30.13,SE,127,3.0,7.0,64,0.00,,OVC200,0.00,454.00,VWS V14.01,2013-01-14 19:34:00,
2013-01-14 13:39:00,11.6,1.8,30.13,ESE,111,6.0,12.0,64,0.00,,OVC200,0.00,387.00,VWS V14.01,2013-01-14 19:39:00,
2013-01-14 13:44:00,11.7,1.9,30.13,SE,145,7.0,12.0,64,0.00,,OVC200,0.00,396.00,VWS V14.01,2013-01-14 19:44:00,
2013-01-14 13:49:00,11.7,1.9,30.13,SE,128,4.0,12.0,64,0.00,,OVC200,0.00,381.00,VWS V14.01,2013-01-14 19:49:00,
2013-01-14 13:54:00,11.7,1.9,30.13,SE,146,5.0,13.0,64,0.00,,OVC200,0.00,360.00,VWS V14.01,2013-01-14 19:54:00,
2013-01-14 13:59:00,11.7,1.9,30.13,SE,140,10.0,13.0,64,0.00,,OVC200,0.00,357.00,VWS V14.01,2013-01-14 19:59:00,
2013-01-14 14:04:00,11.4,1.3,30.13,SE,145,7.0,8.0,63,0.00,,OVC200,0.00,267.00,VWS V14.01,2013-01-14 20:04:00,
2013-01-14 14:09:00,11.2,1.1,30.13,SE,125,4.0,9.0,63,0.00,,OVC200,0.00,188.00,VWS V14.01,2013-01-14 20:09:00,
2013-01-14 14:14:00,11.4,1.9,30.13,SE,136,5.0,9.0,65,0.00,,OVC200,0.00,56.00,VWS V14.01,2013-01-14 20:14:00,
2013-01-14 14:19:00,11.4,1.6,30.13,SSE,153,5.0,9.0,64,0.00,,OVC200,0.00,56.00,VWS V14.01,2013-01-14 20:19:00,
2013-01-14 14:24:00,11.6,1.8,30.13,SSE,157,4.0,9.0,64,0.00,,OVC200,0.00,53.00,VWS V14.01,2013-01-14 20:24:00,
2013-01-14 14:29:00,11.4,1.3,30.13,SSE,148,3.0,10.0,63,0.00,,OVC200,0.00,54.00,VWS V14.01,2013-01-14 20:29:00,
2013-01-14 14:34:00,11.6,1.8,30.13,SSE,159,0.0,4.0,64,0.00,,OVC200,0.00,58.00,VWS V14.01,2013-01-14 20:34:00,
2013-01-14 14:39:00,11.7,1.5,30.13,SE,130,4.0,7.0,63,0.00,,OVC200,0.00,58.00,VWS V14.01,2013-01-14 20:39:00,
2013-01-14 14:44:00,11.7,1.5,30.13,SE,139,2.0,10.0,63,0.00,,OVC200,0.00,46.00,VWS V14.01,2013-01-14 20:44:00,
2013-01-14 14:49:00,11.7,1.2,30.13,SE,146,5.0,10.0,62,0.00,,OVC200,0.00,42.00,VWS V14.01,2013-01-14 20:49:00,
2013-01-14 14:54:00,11.7,1.2,30.13,SSE,156,3.0,10.0,62,0.00,,OVC200,0.00,40.00,VWS V14.01,2013-01-14 20:54:00,
2013-01-14 14:59:00,11.9,1.4,30.13,SSE,166,2.0,10.0,62,0.00,,OVC200,0.00,39.00,VWS V14.01,2013-01-14 20:59:00,
2013-01-14 15:04:00,11.9,1.0,30.13,SSE,168,2.0,3.0,61,0.00,,OVC200,0.00,37.00,VWS V14.01,2013-01-14 21:04:00,
2013-01-14 15:09:00,11.7,0.9,30.13,SSE,165,2.0,5.0,61,0.00,,OVC200,0.00,37.00,VWS V14.01,2013-01-14 21:09:00,
2013-01-14 15:14:00,11.9,1.4,30.13,SSE,162,0.0,5.0,62,0.00,,OVC200,0.00,35.00,VWS V14.01,2013-01-14 21:14:00,
2013-01-14 15:19:00,11.9,1.4,30.13,SSE,158,3.0,5.0,62,0.00,,OVC200,0.00,35.00,VWS V14.01,2013-01-14 21:19:00,
2013-01-14 15:24:00,11.7,0.9,30.13,SSE,157,0.0,5.0,61,0.00,,OVC200,0.00,33.00,VWS V14.01,2013-01-14 21:24:00,
2013-01-14 15:29:00,11.7,1.2,30.13,SSE,158,1.0,5.0,62,0.00,,OVC200,0.00,33.00,VWS V14.01,2013-01-14 21:29:00,
2013-01-14 15:34:00,11.7,0.9,30.13,SSE,155,4.0,4.0,61,0.00,,OVC200,0.00,33.00,VWS V14.01,2013-01-14 21:34:00,
2013-01-14 15:39:00,11.6,0.8,30.13,SSE,149,3.0,5.0,61,0.00,,OVC200,0.00,32.00,VWS V14.01,2013-01-14 21:39:00,
2013-01-14 15:44:00,11.6,0.8,30.13,SSE,149,3.0,5.0,61,0.00,,OVC200,0.00,32.00,VWS V14.01,2013-01-14 21:44:00,
2013-01-14 15:49:00,11.7,0.9,30.13,SSE,151,3.0,5.0,61,0.00,,OVC200,0.00,30.00,VWS V14.01,2013-01-14 21:49:00,
2013-01-14 15:54:00,11.6,0.8,30.13,SSE,151,1.0,5.0,61,0.00,,OVC200,0.00,28.00,VWS V14.01,2013-01-14 21:54:00,
2013-01-14 15:59:00,11.7,0.9,30.13,SSE,152,1.0,5.0,61,0.00,,OVC200,0.00,111.00,VWS V14.01,2013-01-14 21:59:00,
2013-01-14 16:04:00,12.1,1.2,30.13,SSE,152,1.0,2.0,61,0.00,,OVC200,0.00,95.00,VWS V14.01,2013-01-14 22:04:00,
2013-01-14 16:09:00,12.6,1.7,30.13,SE,141,3.0,3.0,61,0.00,,OVC200,0.00,84.00,VWS V14.01,2013-01-14 22:09:00,
2013-01-14 16:14:00,12.9,1.6,30.13,SE,131,2.0,4.0,60,0.00,,OVC200,0.00,74.00,VWS V14.01,2013-01-14 22:14:00,
2013-01-14 16:19:00,12.9,1.6,30.13,ESE,119,1.0,4.0,60,0.00,,OVC200,0.00,62.00,VWS V14.01,2013-01-14 22:19:00,
2013-01-14 16:24:00,12.8,1.5,30.13,East,95,0.0,6.0,60,0.00,,OVC200,0.00,49.00,VWS V14.01,2013-01-14 22:24:00,
2013-01-14 16:29:00,12.6,1.4,30.13,East,95,1.0,6.0,60,0.00,,OVC200,0.00,39.00,VWS V14.01,2013-01-14 22:29:00,
2013-01-14 16:34:00,12.4,1.2,30.13,East,94,1.0,1.0,60,0.00,,OVC200,0.00,30.00,VWS V14.01,2013-01-14 22:34:00,
2013-01-14 16:39:00,12.3,1.1,30.13,East,94,0.0,3.0,60,0.00,,OVC200,0.00,21.00,VWS V14.01,2013-01-14 22:39:00,
2013-01-14 16:44:00,12.1,1.2,30.13,East,94,0.0,3.0,61,0.00,,OVC200,0.00,16.00,VWS V14.01,2013-01-14 22:44:00,
2013-01-14 16:49:00,11.7,0.9,30.13,East,94,1.0,4.0,61,0.00,,OVC200,0.00,11.00,VWS V14.01,2013-01-14 22:49:00,
2013-01-14 16:54:00,11.4,0.9,30.13,East,94,0.0,4.0,62,0.00,,OVC200,0.00,7.00,VWS V14.01,2013-01-14 22:54:00,
2013-01-14 16:59:00,11.2,1.1,30.13,East,94,2.0,4.0,63,0.00,,OVC200,0.00,5.00,VWS V14.01,2013-01-14 22:59:00,
2013-01-14 17:04:00,11.1,1.3,30.13,East,94,0.0,0.0,64,0.00,,OVC200,0.00,0.00,VWS V14.01,2013-01-14 23:04:00,
2013-01-14 17:09:00,10.9,1.1,30.13,East,94,1.0,2.0,64,0.00,,OVC200,0.00,0.00,VWS V14.01,2013-01-14 23:09:00,
2013-01-14 17:14:00,10.9,1.1,30.13,East,94,1.0,2.0,64,0.00,,OVC200,0.00,0.00,VWS V14.01,2013-01-14 23:14:00,
2013-01-14 17:19:00,10.7,1.3,30.13,East,94,1.0,2.0,65,0.00,,OVC200,0.00,0.00,VWS V14.01,2013-01-14 23:19:00,
2013-01-14 17:24:00,10.7,1.3,30.13,East,94,0.0,2.0,65,0.00,,OVC200,0.00,0.00,VWS V14.01,2013-01-14 23:24:00,
2013-01-14 17:29:00,10.5,1.1,30.13,East,94,0.0,2.0,65,0.00,,OVC200,0.00,0.00,VWS V14.01,2013-01-14 23:29:00,
2013-01-14 17:34:00,10.4,1.3,30.13,East,94,0.0,0.0,66,0.00,,OVC200,0.00,0.00,VWS V14.01,2013-01-14 23:34:00,
2013-01-14 17:39:00,10.0,0.9,30.13,East,94,0.0,0.0,66,0.00,,OVC200,0.00,0.00,VWS V14.01,2013-01-14 23:39:00,
2013-01-14 17:44:00,10.0,0.9,30.13,East,94,0.0,2.0,66,0.00,,OVC200,0.00,0.00,VWS V14.01,2013-01-14 23:44:00,
2013-01-14 17:49:00,9.9,1.1,30.12,East,94,0.0,2.0,67,0.00,,OVC200,0.00,0.00,VWS V14.01,2013-01-14 23:49:00,
2013-01-14 17:53:00,9.7,1.0,30.12,East,94,0.0,2.0,67,0.00,,OVC200,0.00,0.00,VWS V14.01,2013-01-14 23:53:00,
2013-01-14 17:58:00,9.5,1.1,30.12,East,94,0.0,2.0,68,0.00,,OVC200,0.00,0.00,VWS V14.01,2013-01-14 23:58:00,
2013-01-14 18:03:00,9.2,0.8,30.12,East,94,0.0,0.0,68,0.00,,OVC200,0.00,0.00,VWS V14.01,2013-01-15 00:03:00,
2013-01-14 18:08:00,9.0,0.6,30.12,East,94,0.0,0.0,68,0.00,,OVC200,0.00,0.00,VWS V14.01,2013-01-15 00:08:00,
2013-01-14 18:13:00,8.8,0.7,30.12,East,94,0.0,0.0,69,0.00,,OVC200,0.00,0.00,VWS V14.01,2013-01-15 00:13:00,
2013-01-14 18:18:00,8.8,0.7,30.12,East,94,0.0,0.0,69,0.00,,OVC200,0.00,0.00,VWS V14.01,2013-01-15 00:18:00,
2013-01-14 18:23:00,8.6,0.8,30.12,East,94,0.0,0.0,70,0.00,,OVC200,0.00,0.00,VWS V14.01,2013-01-15 00:23:00,
2013-01-14 18:28:00,8.6,0.8,30.12,East,94,0.0,0.0,70,0.00,,OVC200,0.00,0.00,VWS V14.01,2013-01-15 00:28:00,
2013-01-14 18:33:00,8.4,0.9,30.12,East,94,0.0,0.0,71,0.00,,OVC200,0.00,0.00,VWS V14.01,2013-01-15 00:33:00,
2013-01-14 18:38:00,8.3,0.9,30.12,East,94,0.0,0.0,71,0.00,,OVC200,0.00,0.00,VWS V14.01,2013-01-15 00:38:00,
2013-01-14 18:43:00,8.3,0.9,30.12,East,94,0.0,0.0,71,0.00,,OVC200,0.00,0.00,VWS V14.01,2013-01-15 00:43:00,
2013-01-14 18:48:00,8.1,0.7,30.11,East,94,0.0,0.0,71,0.00,,OVC200,0.00,0.00,VWS V14.01,2013-01-15 00:48:00,
2013-01-14 18:53:00,7.9,0.8,30.11,East,94,0.0,0.0,72,0.00,,OVC200,0.00,0.00,VWS V14.01,2013-01-15 00:53:00,
2013-01-14 18:58:00,7.9,0.8,30.11,East,94,0.0,0.0,72,0.00,,OVC200,0.00,0.00,VWS V14.01,2013-01-15 00:58:00,
2013-01-14 19:03:00,7.7,0.6,30.11,East,94,0.0,0.0,72,0.00,,OVC200,0.00,0.00,VWS V14.01,2013-01-15 01:03:00,
2013-01-14 19:08:00,7.6,0.5,30.11,East,94,0.0,0.0,72,0.00,,OVC200,0.00,0.00,VWS V14.01,2013-01-15 01:08:00,
2013-01-14 19:13:00,7.4,0.3,30.11,East,94,0.0,0.0,72,0.00,,OVC200,0.00,0.00,VWS V14.01,2013-01-15 01:13:00,
2013-01-14 19:18:00,7.4,0.6,30.11,East,94,0.0,0.0,73,0.00,,OVC200,0.00,0.00,VWS V14.01,2013-01-15 01:18:00,
2013-01-14 19:23:00,7.4,0.6,30.11,East,94,0.0,0.0,73,0.00,,OVC200,0.00,0.00,VWS V14.01,2013-01-15 01:23:00,
2013-01-14 19:28:00,7.6,0.8,30.11,East,94,0.0,0.0,73,0.00,,OVC200,0.00,0.00,VWS V14.01,2013-01-15 01:28:00,
2013-01-14 19:33:00,7.4,0.6,30.10,East,94,0.0,0.0,73,0.00,,OVC200,0.00,0.00,VWS V14.01,2013-01-15 01:33:00,
2013-01-14 19:38:00,7.6,1.1,30.10,East,94,1.0,2.0,74,0.00,,OVC200,0.00,0.00,VWS V14.01,2013-01-15 01:38:00,
2013-01-14 19:43:00,7.7,1.2,30.10,East,94,0.0,2.0,74,0.00,,OVC200,0.00,0.00,VWS V14.01,2013-01-15 01:43:00,
2013-01-14 19:48:00,7.7,1.2,30.10,East,94,0.0,2.0,74,0.00,,OVC200,0.00,0.00,VWS V14.01,2013-01-15 01:48:00,
2013-01-14 19:53:00,7.9,1.4,30.10,East,94,0.0,2.0,74,0.00,,OVC200,0.00,0.00,VWS V14.01,2013-01-15 01:53:00,
2013-01-14 19:58:00,8.1,1.8,30.10,East,94,0.0,2.0,75,0.00,,OVC200,0.00,0.00,VWS V14.01,2013-01-15 01:58:00,
2013-01-14 20:03:00,8.3,2.0,30.10,East,94,0.0,2.0,75,0.00,,OVC200,0.00,0.00,VWS V14.01,2013-01-15 02:03:00,
2013-01-14 20:08:00,8.4,2.1,30.10,East,94,0.0,0.0,75,0.00,,OVC200,0.00,0.00,VWS V14.01,2013-01-15 02:08:00,
2013-01-14 20:13:00,8.6,2.3,30.10,East,94,0.0,2.0,75,0.00,,OVC200,0.00,0.00,VWS V14.01,2013-01-15 02:13:00,
2013-01-14 20:18:00,8.8,2.5,30.09,East,94,0.0,2.0,75,0.00,,OVC200,0.00,0.00,VWS V14.01,2013-01-15 02:18:00,
2013-01-14 20:23:00,9.0,2.4,30.09,East,94,0.0,2.0,74,0.00,,OVC200,0.00,0.00,VWS V14.01,2013-01-15 02:23:00,
2013-01-14 20:28:00,9.0,2.4,30.09,East,94,1.0,2.0,74,0.00,,OVC200,0.00,0.00,VWS V14.01,2013-01-15 02:28:00,
2013-01-14 20:33:00,9.2,2.6,30.08,East,94,1.0,3.0,74,0.00,,OVC200,0.00,0.00,VWS V14.01,2013-01-15 02:33:00,
2013-01-14 20:38:00,9.2,2.6,30.08,East,94,0.0,3.0,74,0.00,,OVC200,0.00,0.00,VWS V14.01,2013-01-15 02:38:00,
2013-01-14 20:43:00,9.2,2.3,30.08,East,94,0.0,3.0,73,0.00,,OVC200,0.00,0.00,VWS V14.01,2013-01-15 02:43:00,
2013-01-14 20:48:00,9.0,2.1,30.08,East,94,0.0,3.0,73,0.00,,OVC200,0.00,0.00,VWS V14.01,2013-01-15 02:48:00,
2013-01-14 20:53:00,8.8,1.9,30.08,East,94,0.0,3.0,73,0.00,,OVC200,0.00,0.00,VWS V14.01,2013-01-15 02:53:00,
2013-01-14 20:58:00,8.8,1.9,30.08,East,94,0.0,3.0,73,0.00,,OVC200,0.00,0.00,VWS V14.01,2013-01-15 02:58:00,
2013-01-14 21:03:00,8.6,1.7,30.08,East,94,0.0,3.0,73,0.00,,OVC200,0.00,0.00,VWS V14.01,2013-01-15 03:03:00,
2013-01-14 21:08:00,8.4,1.5,30.08,East,94,0.0,0.0,73,0.00,,OVC200,0.00,0.00,VWS V14.01,2013-01-15 03:08:00,
2013-01-14 21:13:00,8.3,1.5,30.08,East,94,0.0,1.0,73,0.00,,OVC200,0.00,0.00,VWS V14.01,2013-01-15 03:13:00,
2013-01-14 21:18:00,8.1,1.2,30.07,East,94,0.0,1.0,73,0.00,,OVC200,0.00,0.00,VWS V14.01,2013-01-15 03:18:00,
2013-01-14 21:23:00,8.1,1.5,30.07,East,94,1.0,1.0,74,0.00,,OVC200,0.00,0.00,VWS V14.01,2013-01-15 03:23:00,
2013-01-14 21:28:00,8.3,2.0,30.07,East,94,0.0,2.0,75,0.00,,OVC200,0.00,0.00,VWS V14.01,2013-01-15 03:28:00,
2013-01-14 21:33:00,8.4,2.1,30.06,East,94,0.0,3.0,75,0.00,,OVC200,0.00,0.00,VWS V14.01,2013-01-15 03:33:00,
2013-01-14 21:38:00,8.6,2.3,30.06,East,94,1.0,2.0,75,0.00,,OVC200,0.00,0.00,VWS V14.01,2013-01-15 03:38:00,
2013-01-14 21:43:00,8.8,2.5,30.06,East,94,0.0,2.0,75,0.00,,OVC200,0.00,0.00,VWS V14.01,2013-01-15 03:43:00,
2013-01-14 21:48:00,8.8,2.5,30.05,East,94,0.0,2.0,75,0.00,,OVC200,0.00,0.00,VWS V14.01,2013-01-15 03:48:00,
2013-01-14 21:53:00,8.8,2.5,30.05,East,94,0.0,2.0,75,0.00,,OVC200,0.00,0.00,VWS V14.01,2013-01-15 03:53:00,
2013-01-14 21:58:00,8.8,2.5,30.05,East,94,0.0,2.0,75,0.00,,OVC200,0.00,0.00,VWS V14.01,2013-01-15 03:58:00,
2013-01-14 22:03:00,8.6,2.3,30.05,East,94,0.0,2.0,75,0.00,,OVC200,0.00,0.00,VWS V14.01,2013-01-15 04:03:00,
2013-01-14 22:08:00,8.6,2.3,30.05,East,94,2.0,2.0,75,0.00,,OVC200,0.00,0.00,VWS V14.01,2013-01-15 04:08:00,
2013-01-14 22:13:00,8.6,2.3,30.05,East,94,0.0,2.0,75,0.00,,OVC200,0.00,0.00,VWS V14.01,2013-01-15 04:13:00,
2013-01-14 22:18:00,8.6,2.3,30.05,East,94,0.0,2.0,75,0.00,,OVC200,0.00,0.00,VWS V14.01,2013-01-15 04:18:00,
2013-01-14 22:23:00,8.6,2.3,30.05,East,94,0.0,2.0,75,0.00,,OVC200,0.00,0.00,VWS V14.01,2013-01-15 04:23:00,
2013-01-14 22:28:00,8.4,2.1,30.05,East,94,0.0,2.0,75,0.00,,OVC200,0.00,0.00,VWS V14.01,2013-01-15 04:28:00,
2013-01-14 22:33:00,8.4,2.4,30.04,East,94,0.0,2.0,76,0.00,,OVC200,0.00,0.00,VWS V14.01,2013-01-15 04:33:00,
2013-01-14 22:38:00,8.4,2.4,30.04,East,94,0.0,0.0,76,0.00,,OVC200,0.00,0.00,VWS V14.01,2013-01-15 04:38:00,
2013-01-14 22:43:00,8.4,2.4,30.04,East,94,0.0,0.0,76,0.00,,OVC200,0.00,0.00,VWS V14.01,2013-01-15 04:43:00,
2013-01-14 22:48:00,8.3,2.3,30.04,East,94,0.0,0.0,76,0.00,,OVC200,0.00,0.00,VWS V14.01,2013-01-15 04:48:00,
2013-01-14 22:53:00,7.9,1.6,30.04,East,94,0.0,0.0,75,0.00,,OVC200,0.00,0.00,VWS V14.01,2013-01-15 04:53:00,
2013-01-14 22:58:00,7.6,1.6,30.04,East,94,0.0,0.0,76,0.00,,OVC200,0.00,0.00,VWS V14.01,2013-01-15 04:58:00,
2013-01-14 23:00:00,7.6,1.6,30.04,East,94,0.0,0.0,76,0.00,,OVC200,0.00,0.00,VWS V14.01,2013-01-15 05:00:00,
2013-01-14 23:05:00,8.1,2.4,30.03,East,94,0.0,1.0,77,0.00,,OVC200,0.00,0.00,VWS V14.01,2013-01-15 05:05:00,
2013-01-14 23:10:00,8.6,3.2,30.03,East,94,0.0,2.0,78,0.00,,OVC200,0.00,0.00,VWS V14.01,2013-01-15 05:10:00,
2013-01-14 23:15:00,9.2,3.7,30.03,East,94,0.0,2.0,78,0.00,,OVC200,0.00,0.00,VWS V14.01,2013-01-15 05:15:00,
2013-01-14 23:20:00,9.5,4.0,30.03,East,94,1.0,2.0,78,0.00,,OVC200,0.00,0.00,VWS V14.01,2013-01-15 05:20:00,
2013-01-14 23:25:00,9.7,4.5,30.03,East,94,0.0,2.0,79,0.00,,OVC200,0.00,0.00,VWS V14.01,2013-01-15 05:25:00,
2013-01-14 23:30:00,10.2,5.0,30.03,East,92,0.0,5.0,79,0.00,,OVC200,0.00,0.00,VWS V14.01,2013-01-15 05:30:00,
2013-01-14 23:35:00,10.5,5.3,30.03,East,92,0.0,1.0,79,0.00,,OVC200,0.00,0.00,VWS V14.01,2013-01-15 05:35:00,
2013-01-14 23:40:00,11.1,5.9,30.03,East,92,1.0,4.0,79,0.00,,OVC200,0.00,0.00,VWS V14.01,2013-01-15 05:40:00,
2013-01-14 23:45:00,11.6,6.4,30.03,East,87,3.0,5.0,79,0.00,,OVC200,0.00,0.00,VWS V14.01,2013-01-15 05:45:00,
2013-01-14 23:50:00,11.9,6.4,30.02,ENE,74,2.0,7.0,78,0.00,,OVC200,0.00,0.00,VWS V14.01,2013-01-15 05:50:00,
2013-01-14 23:55:00,12.3,6.8,30.02,ENE,73,4.0,7.0,78,0.00,,OVC200,0.00,0.00,VWS V14.01,2013-01-15 05:55:00,